QPF
0.00 0.00 0.00 0.00 0.00 0.00 0.00 0.00 0.00 0.00 0.00 0.00 0.00 0.00 0.00 0.00 0.00 0.00 0.00 0.00 0.00 0.00 0.00 0.00 0.00 0.00 0.00 0.00 0.00 0.00 0.00 0.00 0.00 0.00 0.00 0.00 0.00 0.00 0.00 0.00 0.00 0.00 0.00 0.00 0.00 0.00 0.00 0.00 0.00
0.00 0.00 0.00 0.00 0.00 0.00 0.00 0.00 0.00 0.00 0.00 0.00 0.00 0.00 0.00 0.00 0.00 0.00 0.00 0.00 0.00 0.00 0.00 0.00 0.00 0.00 0.00 0.00 0.00 0.00 0.00 0.00 0.00 0.00 0.00 0.00 0.00 0.00 0.00 0.00 0.00 0.00 0.00 0.00 0.00 0.00 0.00 0.00 0.00
0.00 0.00 0.00 0.00 0.00 0.00 0.00 0.00 0.00 0.00 0.00 0.00 0.00 0.00 0.00 0.00 0.00 0.00 0.00 0.00 0.00 0.00 0.00 0.00 0.00 0.00 0.00 0.00 0.00 0.00 0.00 0.00 0.00 0.00 0.00 0.00 0.00 0.00 0.00 0.00 0.00 0.00 0.00 0.00 0.00 0.01 0.00 0.00 0.00
0.00 0.00 0.00 0.00 0.00 0.00 0.00 0.00 0.00 0.00 0.00 0.00 0.00 0.00 0.00 0.00 0.00 0.00 0.00 0.00 0.00 0.00 0.00 0.00 0.00 0.00 0.00 0.00 0.00 0.00 0.00 0.00 0.00 0.00 0.00 0.00 0.00 0.00 0.00 0.00 0.00 0.00 0.00 0.00 0.00 0.01 0.01 0.00 0.00
0.00 0.00 0.00 0.00 0.00 0.00 0.00 0.00 0.00 0.00 0.00 0.00 0.00 0.00 0.00 0.00 0.00 0.00 0.00 0.00 0.00 0.00 0.00 0.00 0.00 0.00 0.00 0.00 0.00 0.00 0.00 0.00 0.00 0.00 0.00 0.00 0.00 0.00 0.00 0.00 0.01 0.01 0.00 0.01 0.00 0.00 0.00 0.00 0.00
0.00 0.00 0.00 0.00 0.00 0.00 0.00 0.00 0.00 0.00 0.00 0.00 0.00 0.00 0.00 0.00 0.00 0.00 0.00 0.00 0.00 0.00 0.00 0.00 0.00 0.00 0.00 0.00 0.00 0.00 0.00 0.00 0.00 0.00 0.00 0.00 0.00 0.00 0.00 0.00 0.02 0.03 0.02 0.00 0.00 0.00 0.00 0.00 0.00
0.00 0.00 0.00 0.00 0.00 0.00 0.00 0.00 0.00 0.00 0.00 0.00 0.00 0.00 0.00 0.00 0.00 0.00 0.00 0.00 0.00 0.00 0.00 0.00 0.00 0.00 0.00 0.00 0.00 0.00 0.00 0.00 0.00 0.00 0.00 0.00 0.00 0.00 0.00 0.00 0.01 0.03 0.03 0.02 0.01 0.04 0.01 0.00 0.00
0.00 0.00 0.00 0.00 0.00 0.00 0.00 0.00 0.00 0.00 0.00 0.00 0.00 0.00 0.00 0.00 0.00 0.00 0.00 0.00 0.00 0.00 0.00 0.00 0.00 0.00 0.00 0.00 0.00 0.00 0.00 0.00 0.00 0.00 0.00 0.00 0.00 0.00 0.00 0.00 0.00 0.01 0.01 0.00 0.04 0.04 0.01 0.00 0.00
0.00 0.00 0.00 0.00 0.00 0.00 0.00 0.00 0.00 0.00 0.00 0.00 0.00 0.00 0.00 0.00 0.00 0.00 0.00 0.00 0.00 0.00 0.00 0.00 0.00 0.00 0.00 0.00 0.00 0.00 0.00 0.00 0.00 0.00 0.00 0.00 0.00 0.00 0.00 0.00 0.00 0.00 0.01 0.01 0.02 0.06 0.03 0.00 0.05
0.00 0.00 0.00 0.00 0.00 0.00 0.00 0.00 0.00 0.00 0.00 0.00 0.00 0.00 0.00 0.00 0.00 0.00 0.00 0.00 0.00 0.00 0.00 0.00 0.00 0.00 0.00 0.00 0.00 0.00 0.00 0.00 0.00 0.00 0.00 0.00 0.00 0.00 0.00 0.00 0.00 0.00 0.00 0.00 0.01 0.05 0.04 0.11 0.06
0.00 0.00 0.00 0.00 0.00 0.00 0.00 0.00 0.00 0.00 0.00 0.00 0.00 0.00 0.00 0.00 0.00 0.00 0.00 0.00 0.00 0.00 0.00 0.00 0.00 0.00 0.00 0.00 0.00 0.00 0.00 0.00 0.00 0.00 0.00 0.00 0.00 0.00 0.00 0.00 0.00 0.00 0.00 0.00 0.01 0.02 0.05 0.03 0.05
0.00 0.00 0.00 0.00 0.00 0.00 0.00 0.00 0.00 0.00 0.00 0.00 0.00 0.00 0.00 0.00 0.00 0.00 0.00 0.00 0.00 0.00 0.00 0.00 0.00 0.00 0.00 0.00 0.00 0.00 0.00 0.00 0.00 0.00 0.00 0.00 0.00 0.00 0.00 0.00 0.00 0.01 0.00 0.01 0.01 0.01 0.03 0.03 0.05
0.00 0.00 0.00 0.00 0.00 0.00 0.00 0.00 0.00 0.00 0.00 0.00 0.00 0.00 0.00 0.00 0.00 0.00 0.00 0.00 0.00 0.00 0.00 0.00 0.00 0.00 0.00 0.00 0.00 0.00 0.00 0.00 0.00 0.00 0.00 0.00 0.00 0.00 0.00 0.00 0.00 0.00 0.00 0.00 0.01 0.01 0.02 0.03 0.04
0.00 0.00 0.00 0.00 0.00 0.00 0.00 0.00 0.00 0.00 0.00 0.00 0.00 0.00 0.00 0.00 0.00 0.00 0.00 0.00 0.00 0.00 0.00 0.00 0.00 0.00 0.00 0.00 0.00 0.00 0.00 0.00 0.00 0.00 0.00 0.00 0.00 0.00 0.00 0.00 0.00 0.00 0.00 0.00 0.00 0.01 0.02 0.04 0.05
0.00 0.00 0.00 0.00 0.00 0.00 0.00 0.00 0.00 0.00 0.00 0.00 0.00 0.00 0.00 0.00 0.00 0.00 0.00 0.00 0.00 0.00 0.00 0.00 0.00 0.00 0.00 0.00 0.00 0.00 0.00 0.00 0.00 0.00 0.00 0.00 0.00 0.00 0.00 0.00 0.00 0.00 0.00 0.00 0.00 0.00 0.01 0.02 0.03
0.00 0.00 0.00 0.00 0.00 0.00 0.00 0.00 0.00 0.00 0.00 0.00 0.00 0.00 0.00 0.00 0.00 0.00 0.00 0.00 0.00 0.00 0.00 0.00 0.00 0.00 0.00 0.00 0.00 0.00 0.00 0.00 0.00 0.00 0.00 0.00 0.00 0.00 0.00 0.00 0.00 0.00 0.00 0.00 0.00 0.00 0.00 0.00 0.02
0.00 0.00 0.00 0.00 0.00 0.00 0.00 0.00 0.00 0.00 0.00 0.00 0.00 0.00 0.00 0.00 0.00 0.00 0.00 0.00 0.00 0.00 0.00 0.00 0.00 0.00 0.00 0.00 0.00 0.00 0.01 0.00 0.00 0.00 0.00 0.00 0.00 0.00 0.00 0.00 0.00 0.00 0.00 0.00 0.00 0.00 0.00 0.00 0.00
0.00 0.00 0.00 0.00 0.00 0.00 0.00 0.00 0.00 0.00 0.00 0.00 0.00 0.00 0.00 0.00 0.00 0.00 0.00 0.00 0.00 0.00 0.00 0.00 0.00 0.00 0.00 0.00 0.00 0.00 0.00 0.01 0.00 0.00 0.00 0.00 0.00 0.00 0.00 0.00 0.00 0.00 0.00 0.00 0.00 0.00 0.00 0.00 0.00
0.00 0.00 0.00 0.00 0.00 0.00 0.00 0.00 0.00 0.00 0.00 0.00 0.00 0.00 0.00 0.00 0.00 0.00 0.00 0.00 0.00 0.00 0.00 0.00 0.00 0.00 0.00 0.00 0.00 0.00 0.00 0.00 0.00 0.00 0.00 0.00 0.00 0.00 0.00 0.00 0.00 0.00 0.00 0.00 0.00 0.00 0.00 0.00 0.00
0.00 0.00 0.00 0.00 0.00 0.00 0.00 0.00 0.00 0.00 0.00 0.00 0.00 0.00 0.00 0.00 0.00 0.00 0.00 0.00 0.00 0.00 0.00 0.00 0.00 0.00 0.00 0.00 0.00 0.00 0.00 0.00 0.00 0.01 0.00 0.00 0.00 0.01 0.00 0.00 0.00 0.00 0.00 0.00 0.00 0.00 0.00 0.00 0.00
0.00 0.00 0.00 0.00 0.00 0.00 0.00 0.00 0.00 0.00 0.00 0.00 0.00 0.00 0.00 0.00 0.00 0.00 0.00 0.00 0.00 0.00 0.00 0.00 0.00 0.00 0.00 0.00 0.00 0.00 0.00 0.01 0.01 0.01 0.01 0.00 0.02 0.04 0.02 0.00 0.01 0.00 0.00 0.00 0.00 0.00 0.00 0.00 0.00
0.00 0.00 0.00 0.00 0.00 0.00 0.00 0.00 0.00 0.00 0.00 0.00 0.00 0.00 0.00 0.00 0.00 0.00 0.00 0.00 0.00 0.00 0.00 0.00 0.00 0.00 0.00 0.00 0.00 0.00 0.00 0.00 0.00 0.00 0.00 0.01 0.02 0.04 0.05 0.06 0.11 0.10 0.04 0.01 0.00 0.00 0.01 0.00 0.00
0.00 0.00 0.00 0.00 0.00 0.00 0.00 0.00 0.00 0.00 0.00 0.00 0.00 0.00 0.00 0.00 0.00 0.00 0.00 0.00 0.00 0.00 0.00 0.00 0.00 0.00 0.00 0.00 0.00 0.00 0.00 0.00 0.00 0.00 0.00 0.00 0.01 0.01 0.01 0.05 0.18 0.15 0.08 0.06 0.06 0.01 0.01 0.01 0.01
0.00 0.00 0.00 0.00 0.00 0.00 0.00 0.00 0.00 0.00 0.00 0.00 0.00 0.00 0.00 0.00 0.00 0.00 0.00 0.00 0.00 0.00 0.00 0.00 0.00 0.00 0.00 0.00 0.00 0.00 0.00 0.00 0.01 0.00 0.01 0.02 0.02 0.02 0.01 0.03 0.06 0.05 0.04 0.05 0.06 0.01 0.01 0.01 0.01
0.00 0.00 0.00 0.00 0.00 0.00 0.00 0.00 0.00 0.00 0.00 0.00 0.00 0.00 0.00 0.00 0.00 0.00 0.00 0.00 0.00 0.00 0.00 0.00 0.00 0.00 0.00 0.00 0.00 0.00 0.00 0.01 0.01 0.01 0.01 0.02 0.02 0.01 0.00 0.00 0.01 0.01 0.01 0.01 0.01 0.01 0.02 0.01 0.01
0.00 0.00 0.00 0.00 0.00 0.00 0.00 0.00 0.00 0.00 0.00 0.00 0.00 0.00 0.00 0.00 0.00 0.00 0.00 0.00 0.00 0.00 0.00 0.00 0.00 0.00 0.00 0.01 0.00 0.01 0.01 0.02 0.02 0.02 0.01 0.01 0.01 0.00 0.00 0.01 0.01 0.03 0.06 0.08 0.04 0.01 0.02 0.02 0.02
0.00 0.00 0.00 0.00 0.00 0.00 0.00 0.00 0.00 0.00 0.00 0.00 0.00 0.00 0.00 0.00 0.00 0.00 0.00 0.00 0.00 0.00 0.00 0.00 0.00 0.00 0.02 0.02 0.03 0.03 0.05 0.05 0.08 0.02 0.04 0.04 0.01 0.01 0.00 0.01 0.06 0.16 0.14 0.11 0.09 0.01 0.01 0.01 0.02
0.00 0.00 0.00 0.00 0.00 0.00 0.00 0.00 0.00 0.00 0.00 0.00 0.00 0.00 0.00 0.00 0.00 0.00 0.00 0.00 0.00 0.02 0.02 0.01 0.00 0.01 0.03 0.04 0.06 0.05 0.06 0.03 0.03 0.02 0.04 0.08 0.07 0.03 0.07 0.08 0.12 0.15 0.19 0.19 0.12 0.01 0.01 0.01 0.01
0.00 0.00 0.00 0.01 0.01 0.00 0.00 0.00 0.00 0.00 0.00 0.00 0.00 0.00 0.00 0.00 0.00 0.00 0.00 0.00 0.00 0.00 0.03 0.02 0.01 0.02 0.06 0.10 0.12 0.08 0.06 0.06 0.04 0.05 0.05 0.04 0.03 0.05 0.08 0.09 0.10 0.15 0.16 0.12 0.07 0.02 0.01 0.01 0.02
0.00 0.00 0.00 0.00 0.00 0.00 0.00 0.00 0.00 0.00 0.00 0.00 0.00 0.00 0.00 0.00 0.00 0.00 0.00 0.00 0.00 0.00 0.00 0.01 0.00 0.02 0.06 0.09 0.17 0.20 0.16 0.16 0.16 0.10 0.11 0.10 0.07 0.05 0.05 0.05 0.08 0.07 0.05 0.02 0.02 0.01 0.01 0.01 0.01
MSLP
1012.94 1012.38 1011.96 1010.90 1009.42 1007.03 1004.61 1004.32 1005.04 1005.21 1005.76 1006.32 1006.49 1006.36 1005.70 1005.20 1004.82 1004.08 1004.30 1005.60 1005.93 1005.97 1006.35 1007.61 1008.10 1008.29 1008.55 1008.93 1009.21 1009.51 1009.91 1010.21 1010.48 1010.92 1011.25 1011.65 1012.05 1012.37 1012.61 1012.80 1013.10 1013.26 1013.33 1013.52 1013.82 1014.00 1014.27 1014.43 1014.62
1012.20 1012.03 1011.32 1009.69 1007.94 1005.14 1003.56 1004.18 1005.11 1005.26 1006.43 1006.76 1006.63 1006.30 1005.93 1005.41 1005.83 1005.53 1004.98 1005.96 1006.28 1006.19 1006.55 1007.12 1008.04 1008.17 1008.42 1008.75 1009.06 1009.42 1009.79 1010.02 1010.36 1010.73 1011.14 1011.55 1012.07 1012.43 1012.69 1012.83 1013.12 1013.40 1013.55 1013.70 1013.94 1014.08 1014.16 1014.48 1014.73
1012.25 1011.74 1009.88 1008.41 1006.42 1004.66 1003.77 1005.06 1005.37 1006.24 1006.89 1006.75 1006.35 1006.37 1006.17 1005.98 1006.28 1006.20 1006.28 1006.21 1006.35 1006.36 1006.55 1006.78 1007.75 1007.93 1008.24 1008.61 1008.99 1009.34 1009.60 1009.83 1010.17 1010.52 1010.83 1011.38 1011.89 1012.29 1012.64 1012.82 1013.13 1013.38 1013.60 1013.86 1014.00 1014.21 1014.34 1014.66 1014.89
1011.72 1011.07 1010.17 1008.21 1005.58 1005.07 1005.44 1005.88 1006.32 1006.61 1006.84 1006.97 1006.70 1006.10 1006.25 1006.52 1006.76 1006.67 1006.52 1006.42 1006.34 1006.35 1006.55 1007.39 1008.20 1007.93 1008.16 1008.53 1008.87 1009.25 1009.59 1010.00 1010.32 1010.66 1011.01 1011.49 1011.81 1012.14 1012.54 1012.89 1013.26 1013.41 1013.57 1014.00 1014.11 1014.35 1014.73 1014.89 1015.07
1011.54 1010.11 1008.24 1006.83 1005.29 1005.05 1006.10 1006.67 1006.90 1006.76 1006.85 1006.84 1006.77 1005.84 1006.02 1006.19 1006.62 1006.69 1006.69 1006.65 1006.55 1006.57 1006.84 1007.49 1008.79 1008.89 1008.53 1008.75 1009.05 1009.43 1009.76 1010.15 1010.43 1010.59 1010.83 1011.23 1011.70 1012.10 1012.45 1012.84 1013.18 1013.47 1013.66 1013.96 1014.26 1014.54 1014.88 1015.18 1015.28
1010.56 1009.74 1007.68 1005.74 1004.71 1004.99 1006.30 1006.68 1006.82 1006.75 1006.73 1006.74 1006.77 1006.28 1005.82 1006.35 1006.35 1006.68 1006.81 1006.81 1006.90 1006.81 1007.07 1007.48 1008.74 1009.19 1009.21 1009.18 1009.39 1009.64 1009.91 1010.31 1010.62 1010.77 1010.96 1011.22 1011.56 1011.99 1012.39 1012.74 1013.10 1013.39 1013.68 1013.88 1014.25 1014.62 1014.88 1015.24 1015.35
1010.06 1008.99 1007.09 1005.97 1005.13 1005.28 1006.15 1006.81 1006.66 1006.51 1006.56 1006.43 1006.91 1006.48 1005.80 1005.91 1006.59 1006.70 1006.79 1006.89 1007.01 1007.07 1007.20 1007.41 1008.07 1008.72 1009.36 1009.46 1009.55 1009.87 1010.21 1010.60 1010.80 1011.04 1011.15 1011.35 1011.62 1011.93 1012.33 1012.77 1013.08 1013.31 1013.62 1013.84 1014.04 1014.49 1014.78 1015.26 1015.41
1010.38 1009.08 1007.19 1006.44 1005.72 1005.27 1005.92 1006.65 1006.57 1006.70 1006.31 1007.15 1007.25 1006.07 1005.97 1006.13 1006.62 1006.48 1006.39 1006.59 1006.80 1007.24 1007.36 1007.65 1007.97 1008.49 1008.68 1009.15 1009.80 1009.98 1010.28 1010.63 1010.93 1011.23 1011.37 1011.56 1011.75 1012.04 1012.35 1012.54 1012.91 1013.13 1013.47 1013.72 1013.86 1014.35 1014.63 1015.00 1015.34
1011.10 1009.14 1006.91 1005.90 1005.93 1005.90 1006.59 1006.68 1006.28 1007.09 1007.05 1006.89 1007.04 1006.74 1006.82 1006.72 1006.61 1006.25 1005.87 1005.82 1006.45 1007.08 1007.28 1007.74 1008.12 1008.51 1008.85 1008.76 1009.19 1010.11 1010.44 1010.61 1010.88 1011.09 1011.51 1011.81 1011.53 1011.79 1012.18 1012.32 1012.46 1013.00 1013.29 1013.45 1013.91 1014.26 1014.53 1014.88 1015.26
1010.26 1008.56 1006.84 1006.51 1006.69 1006.62 1006.54 1006.78 1006.56 1006.93 1006.50 1006.59 1006.67 1006.51 1006.71 1006.65 1006.50 1006.29 1005.91 1005.66 1005.94 1006.36 1007.01 1007.22 1007.86 1008.34 1008.71 1009.00 1009.29 1009.43 1009.58 1010.10 1010.39 1010.64 1010.87 1011.25 1011.22 1011.26 1011.38 1012.09 1012.81 1012.92 1013.18 1013.49 1013.68 1014.06 1014.41 1014.70 1014.72
1009.27 1008.13 1007.42 1007.79 1008.00 1007.47 1006.97 1006.70 1006.75 1006.44 1006.19 1006.27 1006.34 1006.42 1006.46 1006.45 1006.28 1006.24 1005.91 1005.73 1005.71 1005.92 1006.40 1006.98 1007.32 1007.67 1008.26 1008.70 1008.97 1009.41 1009.48 1009.60 1009.67 1009.85 1010.08 1010.54 1010.71 1010.84 1011.22 1011.48 1012.47 1012.74 1013.26 1013.02 1013.37 1013.80 1014.08 1013.95 1014.21
1009.16 1008.52 1008.16 1007.89 1007.88 1007.84 1007.19 1007.02 1006.45 1006.34 1006.04 1006.26 1006.37 1006.34 1006.34 1006.21 1006.08 1005.94 1005.75 1005.68 1005.74 1005.75 1005.87 1006.43 1007.05 1007.56 1007.78 1007.91 1008.67 1009.03 1009.52 1009.53 1009.92 1010.01 1010.08 1010.06 1010.48 1010.50 1010.53 1010.65 1011.33 1011.86 1011.90 1012.15 1012.28 1012.46 1013.01 1013.39 1013.72
1009.09 1008.08 1007.99 1008.05 1007.93 1007.55 1007.37 1006.84 1006.37 1006.03 1005.84 1005.92 1005.99 1006.35 1006.06 1006.06 1006.01 1005.83 1005.70 1005.76 1005.86 1005.90 1005.98 1006.06 1006.64 1007.04 1007.35 1007.62 1007.69 1008.08 1008.68 1008.94 1009.03 1009.62 1010.03 1010.26 1010.36 1010.40 1010.25 1010.54 1010.75 1011.30 1011.35 1011.76 1011.93 1012.39 1012.83 1013.17 1013.59
1008.01 1008.17 1007.80 1007.61 1007.41 1007.18 1007.08 1006.35 1006.18 1005.74 1005.62 1005.54 1005.65 1005.84 1005.81 1005.96 1006.02 1006.04 1005.89 1006.06 1006.35 1006.50 1006.38 1006.60 1006.51 1006.56 1007.03 1007.37 1007.37 1007.33 1007.64 1007.74 1008.47 1009.05 1009.48 1009.87 1010.06 1010.06 1010.33 1010.58 1010.81 1010.57 1011.12 1011.62 1011.86 1012.27 1012.52 1013.03 1013.29
1008.48 1008.01 1007.26 1006.95 1006.94 1006.45 1006.58 1005.78 1005.06 1005.31 1005.14 1005.39 1005.33 1005.34 1005.55 1005.80 1006.09 1006.29 1006.72 1006.66 1006.61 1006.67 1006.77 1006.92 1006.90 1006.79 1006.56 1006.81 1007.04 1007.27 1007.03 1007.20 1007.23 1008.08 1008.91 1009.21 1009.60 1009.69 1009.93 1010.27 1010.60 1010.61 1010.86 1011.60 1012.03 1012.28 1012.41 1013.01 1013.26
1008.08 1007.48 1006.16 1005.11 1005.83 1005.94 1006.35 1004.23 1004.53 1004.59 1004.97 1004.85 1004.93 1005.14 1005.47 1005.74 1006.47 1006.84 1007.24 1007.21 1007.07 1006.83 1006.86 1007.11 1007.11 1007.02 1006.67 1006.28 1006.33 1006.34 1006.38 1006.74 1006.69 1007.01 1007.76 1008.27 1008.79 1009.09 1009.61 1009.95 1010.24 1010.69 1010.88 1011.79 1012.34 1012.48 1012.69 1013.11 1013.26
1007.03 1005.55 1005.09 1004.83 1005.44 1005.36 1005.47 1004.08 1004.53 1004.81 1004.90 1004.85 1004.80 1004.84 1005.31 1005.87 1006.29 1007.09 1007.42 1007.49 1007.59 1007.40 1007.17 1006.78 1007.04 1006.96 1006.83 1006.30 1005.87 1005.76 1005.80 1005.96 1006.07 1006.21 1006.73 1007.05 1007.78 1008.27 1008.97 1009.35 1009.95 1010.39 1010.87 1011.38 1012.13 1012.40 1012.50 1012.91 1013.01
1005.77 1005.21 1004.90 1004.60 1004.64 1005.34 1004.73 1004.30 1004.47 1004.50 1004.25 1004.49 1004.47 1004.67 1005.48 1005.89 1006.52 1007.22 1007.42 1007.68 1007.73 1007.71 1007.66 1007.39 1006.93 1006.91 1006.75 1006.43 1005.51 1005.14 1005.00 1005.46 1005.56 1005.65 1005.86 1006.05 1006.79 1007.46 1008.41 1008.82 1009.44 1010.05 1010.64 1010.97 1011.65 1012.15 1012.40 1012.68 1012.96
1006.50 1005.53 1004.91 1004.63 1005.00 1005.46 1004.55 1004.06 1003.75 1003.83 1003.81 1003.90 1004.16 1004.94 1005.58 1006.24 1006.74 1006.95 1007.36 1007.71 1007.82 1007.73 1007.77 1007.65 1007.26 1006.92 1006.67 1006.01 1005.07 1004.16 1003.85 1004.40 1004.54 1004.43 1005.01 1005.44 1005.98 1006.69 1007.56 1008.22 1009.12 1009.69 1010.08 1010.47 1011.15 1011.94 1012.24 1012.45 1012.83
1006.90 1006.07 1005.35 1005.20 1005.31 1005.07 1004.35 1003.38 1002.90 1003.08 1003.19 1003.48 1004.12 1005.08 1005.95 1006.51 1006.77 1007.08 1007.30 1007.50 1007.80 1007.92 1007.95 1007.84 1007.46 1007.06 1006.74 1006.13 1005.36 1004.04 1003.13 1003.24 1003.77 1003.92 1004.06 1004.51 1005.59 1006.15 1006.71 1007.56 1008.34 1009.07 1009.64 1010.12 1010.61 1011.27 1011.94 1012.13 1012.61
1006.84 1006.08 1005.62 1005.33 1004.96 1004.94 1004.21 1003.04 1001.99 1002.81 1003.42 1004.08 1004.70 1005.74 1006.41 1006.89 1007.30 1007.49 1007.73 1007.94 1008.03 1007.95 1008.01 1007.99 1007.68 1007.35 1006.88 1006.29 1005.34 1004.48 1003.13 1002.57 1002.94 1003.42 1003.61 1003.95 1004.88 1005.55 1006.05 1006.90 1007.86 1008.67 1009.10 1009.64 1010.00 1010.82 1011.44 1011.67 1012.20
1006.18 1006.24 1006.08 1005.61 1005.23 1003.57 1003.74 1001.80 1001.73 1002.28 1003.33 1004.18 1005.02 1005.89 1006.60 1007.28 1007.75 1007.93 1008.07 1008.37 1008.60 1008.57 1008.65 1008.41 1007.95 1007.37 1006.83 1006.29 1005.14 1004.07 1002.79 1001.41 1001.58 1001.99 1002.55 1003.18 1003.98 1004.83 1005.45 1005.82 1006.67 1007.45 1008.44 1009.09 1009.56 1010.41 1010.90 1011.31 1011.54
1006.55 1006.29 1006.27 1005.57 1004.97 1004.32 1003.34 1002.96 1000.67 1002.22 1003.01 1003.93 1005.20 1006.26 1007.18 1007.86 1008.26 1008.30 1008.43 1008.73 1008.80 1009.03 1009.03 1008.67 1008.08 1007.49 1006.84 1006.24 1005.60 1004.34 1002.69 1001.17 1000.82 1001.25 1002.04 1002.78 1003.14 1003.71 1004.59 1004.73 1004.75 1005.20 1006.79 1007.94 1008.70 1009.50 1010.01 1010.58 1011.06
1007.35 1006.98 1006.18 1005.78 1004.87 1003.68 1002.86 1002.47 1000.69 1001.98 1002.47 1003.88 1005.64 1006.95 1007.89 1008.35 1008.52 1008.59 1008.81 1008.90 1008.83 1009.05 1009.22 1009.00 1008.04 1007.43 1006.77 1005.88 1004.98 1003.81 1002.30 1001.05 1000.01 1000.48 1001.41 1002.00 1002.42 1002.88 1003.62 1004.04 1004.67 1005.20 1005.53 1006.16 1007.51 1008.29 1009.04 1009.74 1010.39
1007.82 1006.74 1006.11 1005.58 1004.35 1002.63 1002.24 1002.24 1001.27 1002.53 1003.88 1004.72 1006.25 1007.59 1008.47 1008.86 1008.99 1008.97 1008.92 1008.91 1008.98 1009.19 1009.10 1008.80 1007.92 1007.37 1006.45 1005.34 1004.18 1002.74 1001.27 1000.40 999.59 999.95 1000.56 1001.47 1001.92 1002.34 1002.83 1003.30 1003.97 1004.27 1004.63 1005.49 1007.11 1006.83 1008.23 1008.96 1009.59
1006.00 1005.80 1005.44 1003.66 1002.70 1002.14 1003.19 1002.46 1002.73 1004.54 1005.57 1006.70 1007.63 1008.43 1009.00 1009.26 1009.46 1009.51 1009.61 1009.64 1009.60 1009.41 1009.09 1008.64 1007.61 1006.94 1005.75 1004.63 1003.22 1001.71 999.71 999.13 999.18 999.69 1000.21 1000.80 1001.22 1001.52 1002.21 1003.12 1003.33 1003.71 1003.78 1003.99 1005.79 1006.39 1007.50 1008.16 1008.88
1005.14 1004.83 1004.47 1003.96 1003.65 1003.01 1002.33 1003.38 1004.94 1005.95 1006.71 1007.50 1008.23 1008.84 1009.35 1009.68 1009.93 1010.10 1010.09 1010.15 1010.10 1009.57 1009.27 1009.07 1007.93 1007.22 1006.15 1004.38 1002.68 1000.62 998.45 998.36 998.88 999.33 999.85 1000.18 1000.12 1000.40 1001.55 1002.65 1003.43 1003.76 1005.12 1004.81 1005.71 1006.35 1006.91 1007.70 1008.38
1005.19 1004.67 1005.29 1004.86 1003.86 1002.85 1002.38 1002.49 1002.80 1005.95 1006.90 1007.78 1008.58 1009.27 1009.76 1010.15 1010.43 1010.60 1010.63 1010.80 1010.63 1010.01 1009.71 1009.40 1008.44 1007.77 1006.13 1004.43 1002.77 1000.62 998.79 998.75 998.84 999.02 999.22 999.78 999.70 1000.32 1001.17 1002.35 1003.02 1003.64 1004.63 1005.31 1005.36 1005.99 1006.74 1007.44 1007.83
1005.87 1005.51 1005.69 1005.19 1004.97 1004.07 1003.35 1003.45 1005.43 1006.50 1007.62 1008.34 1009.07 1009.85 1010.44 1010.79 1011.09 1011.32 1011.35 1011.31 1010.91 1010.43 1010.23 1009.67 1008.29 1007.59 1006.38 1005.05 1003.32 1001.54 999.53 999.07 998.96 998.83 999.19 999.79 1000.09 1000.33 1000.82 1001.56 1002.72 1003.76 1004.34 1004.92 1005.00 1005.53 1006.13 1006.66 1007.31
1007.16 1006.56 1006.34 1006.22 1005.89 1005.84 1005.71 1005.10 1006.42 1007.45 1008.50 1009.27 1009.76 1010.61 1011.22 1011.78 1012.09 1011.96 1011.91 1011.61 1011.43 1011.00 1010.72 1009.94 1009.33 1008.57 1007.61 1006.25 1004.53 1002.89 1001.26 1000.02 999.48 999.41 999.15 999.63 1000.13 1000.46 1000.97 1000.93 1002.07 1002.95 1004.11 1004.36 1004.73 1005.08 1005.55 1006.10 1006.67
Thickness
5735 5738 5742 5743 5730 5744 5754 5756 5757 5748 5746 5755 5757 5754 5759 5766 5760 5759 5805 5799 5800 5801 5799 5788 5784 5783 5780 5777 5775 5772 5767 5764 5760 5756 5753 5750 5745 5742 5740 5738 5735 5733 5732 5729 5726 5724 5722 5720 5717
5735 5736 5737 5736 5728 5741 5760 5764 5742 5751 5746 5751 5751 5755 5754 5752 5770 5776 5786 5791 5792 5794 5791 5786 5779 5779 5777 5775 5772 5768 5764 5761 5758 5754 5750 5747 5742 5739 5736 5734 5732 5729 5727 5725 5723 5721 5719 5716 5713
5729 5733 5730 5730 5739 5739 5751 5747 5746 5743 5742 5744 5747 5756 5752 5750 5763 5769 5781 5784 5785 5786 5785 5784 5777 5775 5773 5771 5767 5763 5761 5760 5756 5752 5749 5743 5739 5736 5733 5731 5728 5726 5723 5720 5718 5716 5715 5711 5708
5722 5723 5722 5719 5734 5747 5738 5740 5740 5735 5740 5743 5745 5740 5755 5762 5755 5767 5774 5777 5778 5780 5778 5774 5768 5770 5768 5765 5763 5759 5756 5753 5750 5747 5743 5739 5736 5733 5730 5727 5723 5721 5720 5716 5714 5711 5707 5706 5703
5716 5718 5713 5720 5737 5747 5737 5735 5733 5729 5730 5733 5740 5739 5740 5757 5762 5763 5765 5768 5769 5772 5770 5765 5756 5755 5759 5757 5754 5751 5748 5745 5743 5741 5738 5734 5731 5728 5725 5724 5720 5717 5715 5712 5709 5706 5703 5699 5697
5703 5710 5703 5719 5740 5745 5732 5733 5729 5728 5730 5731 5729 5734 5741 5753 5755 5756 5758 5758 5760 5762 5761 5758 5749 5746 5746 5746 5745 5743 5741 5738 5736 5735 5733 5730 5726 5722 5720 5718 5716 5714 5711 5709 5705 5702 5699 5695 5693
5697 5699 5705 5718 5729 5729 5726 5729 5723 5725 5724 5726 5730 5720 5741 5746 5748 5750 5752 5753 5752 5753 5753 5751 5747 5743 5738 5738 5737 5734 5731 5729 5728 5726 5726 5725 5721 5717 5713 5711 5709 5709 5706 5705 5703 5698 5696 5691 5688
5694 5692 5696 5707 5711 5719 5731 5721 5727 5721 5723 5728 5726 5719 5723 5736 5742 5745 5748 5748 5747 5744 5744 5742 5740 5736 5736 5733 5729 5728 5726 5723 5721 5718 5717 5716 5715 5711 5707 5707 5705 5704 5703 5700 5698 5695 5693 5689 5685
5684 5678 5690 5709 5705 5710 5717 5710 5725 5721 5714 5719 5718 5719 5722 5731 5734 5736 5740 5743 5739 5735 5736 5734 5732 5728 5726 5727 5725 5719 5718 5718 5716 5714 5709 5706 5708 5707 5702 5702 5702 5699 5698 5698 5694 5690 5688 5685 5681
5674 5678 5695 5709 5704 5700 5708 5707 5711 5704 5708 5707 5710 5717 5719 5722 5724 5721 5725 5729 5731 5730 5728 5730 5726 5722 5719 5718 5716 5715 5717 5714 5711 5709 5707 5703 5703 5704 5703 5698 5693 5694 5693 5691 5690 5686 5685 5681 5679
5676 5674 5691 5685 5685 5691 5694 5699 5704 5699 5694 5702 5699 5704 5709 5711 5714 5714 5717 5720 5722 5726 5724 5721 5721 5720 5716 5713 5710 5708 5710 5710 5710 5710 5708 5703 5701 5701 5699 5695 5687 5686 5686 5687 5686 5682 5679 5680 5678
5661 5673 5676 5678 5681 5678 5682 5689 5691 5691 5696 5701 5700 5702 5702 5702 5704 5708 5710 5713 5713 5715 5718 5717 5713 5710 5710 5709 5704 5702 5701 5703 5701 5702 5702 5703 5698 5698 5699 5697 5690 5686 5688 5687 5687 5687 5682 5679 5676
5653 5668 5671 5670 5671 5674 5676 5675 5680 5685 5694 5696 5697 5692 5694 5694 5696 5701 5705 5705 5706 5704 5707 5709 5707 5705 5704 5703 5704 5702 5698 5698 5699 5696 5693 5692 5692 5691 5695 5693 5691 5684 5685 5684 5685 5681 5678 5675 5671
5661 5659 5661 5664 5665 5667 5662 5669 5672 5681 5686 5685 5685 5683 5686 5685 5686 5688 5690 5689 5688 5690 5694 5695 5697 5698 5695 5694 5695 5698 5697 5697 5691 5691 5690 5687 5685 5686 5685 5685 5684 5685 5679 5679 5678 5677 5675 5670 5668
5649 5643 5653 5657 5659 5659 5661 5657 5665 5674 5679 5672 5674 5676 5677 5677 5677 5674 5672 5674 5677 5677 5679 5680 5683 5687 5690 5689 5688 5688 5692 5691 5694 5689 5683 5685 5681 5681 5680 5680 5679 5681 5675 5669 5670 5670 5669 5664 5662
5633 5639 5641 5663 5657 5656 5646 5656 5666 5672 5665 5665 5666 5666 5665 5666 5661 5661 5660 5661 5665 5668 5667 5668 5671 5673 5678 5684 5685 5685 5686 5683 5685 5685 5682 5680 5679 5678 5675 5673 5673 5670 5669 5661 5659 5660 5660 5657 5655
5628 5637 5644 5647 5649 5646 5643 5651 5655 5658 5653 5652 5656 5658 5655 5652 5653 5648 5648 5649 5650 5653 5656 5660 5659 5660 5665 5672 5677 5678 5679 5679 5679 5679 5678 5678 5676 5675 5671 5669 5666 5663 5661 5658 5652 5653 5655 5651 5650
5621 5627 5634 5631 5640 5632 5636 5639 5643 5646 5649 5645 5649 5650 5644 5641 5638 5636 5637 5637 5638 5640 5643 5646 5651 5652 5654 5657 5666 5671 5674 5671 5670 5672 5674 5676 5673 5672 5665 5665 5661 5656 5654 5652 5648 5646 5648 5646 5643
5606 5615 5618 5625 5627 5615 5624 5629 5636 5640 5642 5640 5642 5636 5632 5628 5629 5631 5629 5628 5629 5631 5632 5633 5636 5639 5643 5649 5656 5661 5663 5661 5663 5669 5668 5669 5669 5666 5660 5659 5653 5650 5649 5647 5644 5639 5640 5640 5637
5587 5592 5600 5608 5610 5609 5616 5624 5635 5634 5636 5637 5633 5626 5620 5617 5618 5619 5620 5620 5619 5620 5621 5622 5622 5625 5627 5633 5638 5648 5655 5656 5655 5655 5657 5662 5658 5659 5655 5653 5648 5645 5642 5640 5639 5636 5632 5634 5631
5573 5580 5586 5587 5598 5601 5605 5612 5627 5624 5624 5621 5619 5612 5608 5604 5603 5606 5606 5606 5608 5609 5608 5609 5608 5608 5611 5613 5620 5625 5635 5642 5643 5644 5647 5653 5651 5650 5652 5646 5640 5636 5635 5633 5634 5630 5627 5627 5624
5563 5574 5572 5574 5578 5592 5603 5608 5613 5616 5609 5607 5604 5600 5598 5594 5593 5594 5595 5593 5592 5592 5591 5592 5593 5593 5592 5594 5601 5610 5621 5634 5640 5640 5644 5645 5643 5644 5643 5643 5640 5635 5629 5628 5629 5624 5623 5622 5620
5552 5560 5556 5567 5573 5578 5591 5586 5618 5608 5600 5600 5595 5590 5585 5582 5581 5582 5582 5581 5580 5579 5576 5575 5576 5575 5574 5576 5581 5593 5610 5629 5636 5635 5634 5633 5637 5641 5637 5640 5637 5628 5633 5628 5629 5625 5622 5619 5616
5537 5535 5549 5556 5564 5563 5585 5589 5608 5593 5600 5594 5585 5577 5571 5569 5571 5572 5572 5571 5571 5567 5562 5558 5559 5560 5563 5567 5571 5584 5602 5617 5630 5632 5627 5628 5631 5635 5633 5634 5628 5628 5635 5635 5628 5627 5623 5619 5614
5522 5532 5526 5527 5538 5565 5587 5585 5604 5588 5583 5583 5574 5564 5559 5557 5559 5561 5563 5562 5560 5553 5549 5545 5547 5549 5555 5560 5567 5583 5601 5613 5625 5628 5625 5622 5624 5626 5629 5630 5627 5631 5633 5630 5622 5631 5622 5617 5612
5528 5536 5529 5534 5558 5575 5566 5568 5573 5566 5562 5556 5552 5549 5547 5547 5547 5548 5547 5546 5544 5540 5539 5537 5540 5544 5551 5558 5569 5583 5608 5617 5622 5621 5620 5620 5621 5626 5626 5622 5626 5627 5629 5631 5625 5626 5620 5616 5612
5533 5532 5554 5545 5554 5557 5575 5566 5551 5544 5542 5542 5540 5539 5537 5535 5534 5533 5533 5531 5530 5529 5527 5524 5529 5535 5540 5553 5566 5588 5614 5617 5615 5617 5615 5618 5623 5626 5620 5617 5615 5615 5608 5617 5617 5615 5616 5612 5608
5532 5546 5527 5534 5535 5548 5574 5576 5575 5537 5537 5535 5531 5527 5525 5524 5521 5519 5518 5516 5515 5516 5515 5514 5519 5522 5534 5547 5560 5583 5605 5608 5611 5612 5614 5613 5619 5621 5619 5612 5609 5609 5605 5608 5611 5610 5610 5605 5605
5521 5525 5524 5532 5536 5541 5552 5563 5535 5530 5524 5522 5518 5514 5511 5510 5506 5504 5503 5503 5504 5506 5504 5504 5514 5517 5526 5537 5552 5568 5594 5600 5605 5608 5609 5607 5610 5615 5615 5610 5606 5603 5604 5604 5606 5608 5606 5604 5601
5504 5510 5516 5518 5526 5526 5524 5538 5524 5517 5509 5505 5505 5498 5493 5490 5488 5491 5491 5492 5492 5494 5493 5497 5500 5504 5511 5522 5538 5551 5568 5585 5594 5596 5601 5602 5603 5605 5606 5611 5607 5605 5601 5601 5603 5604 5603 5602 5599